Location: Unspecified
(0.0000°N, 0.0000°E)
Time: 20:26:39
(UTC+00:00)

Courier 1B - All Passes

Search period start: 10 December 2016 00:00
Search period end: 20 December 2016 00:00
Orbit: 962 x 1209 km, 28.3° (Epoch: 10 December)

Date Brightness Start Highest point End Pass type
(mag) Time Alt. Az. Time Alt. Az. Time Alt. Az.
10 Dec - 00:29:53 10° S 00:32:47 13° SSE 00:35:43 10° SE night (unlit)
10 Dec - 02:20:51 10° SW 02:27:37 41° SSE 02:34:44 10° E visible
10 Dec - 04:14:35 10° WSW 04:22:00 62° NNW 04:29:44 10° NE visible
10 Dec - 06:11:20 10° WNW 06:16:52 21° NNW 06:22:27 10° NNE daylight
10 Dec - 12:04:23 10° N 12:06:28 11° NNE 12:08:32 10° NE daylight
10 Dec - 13:55:18 10° NW 14:01:39 34° NNE 14:07:39 10° E daylight
10 Dec - 15:49:01 10° WNW 15:55:51 69° SSW 16:02:23 10° SE daylight
10 Dec - 17:45:37 10° WSW 17:50:06 19° SSW 17:54:33 10° SSE daylight
11 Dec - 01:27:36 10° SSW 01:33:40 30° SSE 01:40:03 10° E visible
11 Dec - 03:20:39 10° WSW 03:28:02 83° NNW 03:35:49 10° ENE visible
11 Dec - 05:16:25 10° W 05:22:41 27° NNW 05:29:06 10° NNE visible
11 Dec - 13:01:50 10° NNW 13:07:40 25° NNE 13:13:14 10° E daylight
11 Dec - 14:55:02 10° WNW 15:02:06 85° NNE 15:08:46 10° ESE daylight
11 Dec - 16:50:43 10° W 16:56:14 27° SSW 17:01:36 10° SSE daylight
12 Dec - 00:34:33 10° SSW 00:39:42 22° SSE 00:45:03 10° ESE night (unlit)
12 Dec - 02:26:57 10° SW 02:34:07 73° SSE 02:41:44 10° ENE visible
12 Dec - 04:21:51 10° W 04:28:35 36° NNW 04:35:35 10° NE visible
12 Dec - 06:20:52 10° NW 06:23:56 13° NNW 06:27:01 10° N daylight
12 Dec - 12:08:29 10° NNW 12:13:35 19° NNE 12:18:30 10° ENE daylight
12 Dec - 14:01:09 10° NW 14:08:17 62° NNE 14:14:58 10° ESE daylight
12 Dec - 15:56:06 10° W 16:02:24 37° SSW 16:08:26 10° SE daylight
12 Dec - 17:55:57 10° SSW 17:57:06 10° SSW 17:58:14 10° SSW daylight
12 Dec - 23:41:51 10° S 23:45:40 15° SSE 23:49:37 10° ESE night (unlit)
13 Dec - 01:33:25 10° SW 01:40:14 52° SSE 01:47:28 10° ENE visible
13 Dec - 03:27:35 10° WSW 03:34:33 48° NNW 03:41:55 10° NE visible
13 Dec - 05:25:07 10° WNW 05:29:36 16° NNW 05:34:10 10° NNE visible
13 Dec - 11:15:20 10° NNW 11:19:24 15° NNE 11:23:21 10° NE daylight
13 Dec - 13:07:24 10° NW 13:14:24 45° NNE 13:20:59 10° E daylight
13 Dec - 15:01:43 10° WNW 15:08:37 53° SSW 15:15:07 10° SE daylight
13 Dec - 16:59:24 10° WSW 17:03:03 15° SSW 17:06:38 10° S daylight
13 Dec - 22:50:06 10° S 22:51:35 11° SSE 22:53:06 10° SE night (unlit)
14 Dec - 00:40:05 10° SW 00:46:22 37° SSE 00:52:59 10° E night (unlit)
14 Dec - 02:33:33 10° WSW 02:40:36 65° NNW 02:48:06 10° NE visible
14 Dec - 04:29:57 10° WNW 04:35:22 21° NNW 04:40:57 10° NNE visible
14 Dec - 10:22:36 10° N 10:25:05 12° NNE 10:27:31 10° NE daylight
14 Dec - 12:13:46 10° NW 12:20:26 33° NNE 12:26:45 10° E daylight
14 Dec - 14:07:31 10° WNW 14:14:48 75° SSW 14:21:38 10° SE daylight
14 Dec - 16:04:03 10° WSW 16:09:05 21° SSW 16:13:58 10° SSE daylight
14 Dec - 23:46:57 10° SSW 23:52:29 27° SSE 23:58:16 10° E night (unlit)
15 Dec - 01:39:45 10° WSW 01:46:43 88° NNW 01:54:10 10° ENE night (unlit)
15 Dec - 03:35:13 10° W 03:41:14 28° NNW 03:47:33 10° NNE visible
15 Dec - 11:20:16 10° NNW 11:26:22 25° NNE 11:32:14 10° E daylight
15 Dec - 13:13:28 10° WNW 13:20:58 81° NNE 13:27:58 10° ESE daylight
15 Dec - 15:09:07 10° W 15:15:11 30° SSW 15:20:58 10° SSE daylight
15 Dec - 22:54:02 10° SSW 22:58:34 19° SSE 23:03:14 10° ESE night (unlit)
16 Dec - 00:46:08 10° SW 00:52:53 67° SSE 01:00:05 10° ENE night (unlit)
16 Dec - 02:40:47 10° W 02:47:13 37° NNW 02:54:00 10° NE visible
16 Dec - 04:39:26 10° NW 04:42:27 13° NNW 04:45:30 10° N visible
16 Dec - 10:26:54 10° NNW 10:32:12 20° NNE 10:37:22 10° ENE daylight
16 Dec - 12:19:34 10° NW 12:27:03 59° NNE 12:34:06 10° ESE daylight
16 Dec - 14:14:29 10° W 14:21:19 41° SSW 14:27:46 10° SE daylight
16 Dec - 16:13:30 10° SW 16:16:00 12° SSW 16:18:28 10° S daylight
16 Dec - 22:01:31 10° S 22:04:34 13° SSE 22:07:41 10° SE visible
16 Dec - 23:52:42 10° SW 23:59:05 48° SSE 00:05:49 10° ENE night (unlit)
17 Dec - 01:46:38 10° WSW 01:53:15 49° NNW 02:00:19 10° NE night (unlit)
17 Dec - 03:43:53 10° WNW 03:48:10 16° NNW 03:52:35 10° NNE visible
17 Dec - 09:33:46 10° NNW 09:37:57 15° NNE 09:42:03 10° NE daylight
17 Dec - 11:25:49 10° NW 11:33:05 44° NNE 11:40:00 10° E daylight
17 Dec - 13:20:05 10° WNW 13:27:26 58° SSW 13:34:22 10° SE daylight
17 Dec - 15:17:31 10° WSW 15:21:56 17° SSW 15:26:14 10° SSE daylight
17 Dec - 22:59:26 10° SW 23:05:17 34° SSE 23:11:23 10° E night (unlit)
18 Dec - 00:52:42 10° WSW 00:59:24 68° NNW 01:06:32 10° NE night (unlit)
18 Dec - 02:48:52 10° WNW 02:54:00 21° NNW 02:59:22 10° NNE visible
18 Dec - 08:41:09 10° N 08:43:35 12° NNE 08:46:01 10° NE daylight
18 Dec - 10:32:12 10° NW 10:39:02 33° NNE 10:45:38 10° E daylight
18 Dec - 12:25:52 10° WNW 12:33:33 80° SSW 12:40:48 10° SE daylight
18 Dec - 14:22:15 10° W 14:27:56 24° SSW 14:33:24 10° SSE daylight
18 Dec - 22:06:20 10° SSW 22:11:27 24° SSE 22:16:41 10° E visible
18 Dec - 23:58:58 10° WSW 00:05:36 87° SSE 00:12:38 10° ENE night (unlit)
19 Dec - 01:54:14 10° W 01:59:58 28° NNW 02:05:59 10° NNE night (unlit)
19 Dec - 09:38:43 10° NNW 09:44:55 25° NNE 09:50:58 10° ENE daylight
19 Dec - 11:31:50 10° NW 11:39:37 76° NNE 11:47:01 10° ESE daylight
19 Dec - 13:27:21 10° W 13:33:59 33° SSW 13:40:17 10° SSE daylight
19 Dec - 21:13:28 10° SSW 21:17:33 17° SSE 21:21:39 10° ESE visible
19 Dec - 23:05:24 10° SW 23:11:51 62° SSE 23:18:35 10° ENE night (unlit)
